Simultaneous Nadir Overpasses (SNOs) Predictions

Prediction of SNOs near US between AQUA and NPP Satellite Orbit:

Table of predicted SNOs near US for the next 10.0 days since TLE Epoch: 3/12/2016
Index Date (AQUA) Time (AQUA) AQUA Lat,Lon Date (NPP) Time (NPP) NPP Lat,Lon Distance(km) Time Diff (sec)
1 03/13/2016 06:30:45 46.46, -65.03 03/13/2016 06:31:27 46.86, -66.90 149.00 42
2 03/13/2016 08:08:40 49.91, -88.38 03/13/2016 08:11:56 50.36, -90.78 177.93 196
3 03/13/2016 09:47:33 49.92,-113.10 03/13/2016 09:53:23 50.53,-116.08 222.30 350
4 03/15/2016 19:06:51 49.99, -92.61 03/15/2016 19:02:10 49.69, -94.30 126.14 281
5 03/15/2016 20:45:44 49.99,-117.33 03/15/2016 20:43:38 49.58,-119.63 171.37 126
6 03/18/2016 08:35:34 20.02,-101.93 03/18/2016 08:27:14 18.77,-102.25 143.24 500
7 03/18/2016 10:12:17
